URMT Weather Reports


time (UTC)temp
C
wind
direction
speed
KPH
gust
KPH
rain 1hr
cm
rain 24hr
cm
rain mn
cm
humidity
%
barometer
mb
20260508150041 20 300 20.9 0.0 0.00 0.00 0.00 52 1018.0
20260508143044 20 300 25.7 0.0 0.00 0.00 0.00 52 1018.0
20260508140041 20 310 20.9 0.0 0.00 0.00 0.00 49 1018.0
20260508133042 20 320 20.9 0.0 0.00 0.00 0.00 49 1018.0
20260508130042 20 320 20.9 0.0 0.00 0.00 0.00 49 1019.0
20260508123043 20 300 20.9 0.0 0.00 0.00 0.00 46 1019.0
20260508120043 20 300 25.7 0.0 0.00 0.00 0.00 49 1019.0
20260508113043 20 300 25.7 0.0 0.00 0.00 0.00 49 1019.0
20260508110042 20 290 29.0 0.0 0.00 0.00 0.00 52 1019.0
20260508103042 18 290 29.0 0.0 0.00 0.00 0.00 55 1019.0
20260508100041 20 290 29.0 0.0 0.00 0.00 0.00 49 1019.0
20260508093043 18 270 32.2 0.0 0.00 0.00 0.00 52 1019.0
20260508090042 15 290 29.0 0.0 0.00 0.00 0.00 63 1019.0
20260508083042 17 300 29.0 0.0 0.00 0.00 0.00 55 1020.0
20260508080041 16 300 25.7 0.0 0.00 0.00 0.00 59 1020.0
20260508073042 16 280 29.0 0.0 0.00 0.00 0.00 67 1020.0
20260508070042 15 280 25.7 0.0 0.00 0.00 0.00 72 1020.0
20260508063042 13 280 25.7 0.0 0.00 0.00 0.00 71 1020.0
20260508060042 13 280 25.7 0.0 0.00 0.00 0.00 67 1020.0
20260508053042 12 280 25.7 0.0 0.00 0.00 0.00 71 1020.0
20260508050043 11 280 20.9 0.0 0.00 0.00 0.00 76 1020.0
20260508043042 11 280 20.9 0.0 0.00 0.00 0.00 71 1020.0
20260508040042 11 290 20.9 0.0 0.00 0.00 0.00 76 1020.0
20260508033042 11 300 20.9 0.0 0.00 0.00 0.00 71 1020.0
20260508030044 11 300 20.9 0.0 0.00 0.00 0.00 71 1019.0
20260508023043 10 290 17.7 0.0 0.00 0.00 0.00 76 1019.0
20260508020042 10 280 25.7 0.0 0.00 0.00 0.00 76 1019.0
20260508013046 11 290 25.7 0.0 0.00 0.00 0.00 71 1019.0
20260508010042 10 290 17.7 0.0 0.00 0.00 0.00 81 1019.0
20260508003042 10 290 17.7 0.0 0.00 0.00 0.00 87 1020.0
20260508000043 11 310 14.5 0.0 0.00 0.00 0.00 81 1020.0
20260507233042 11 310 14.5 0.0 0.00 0.00 0.00 81 1020.0
20260507230043 12 340 11.3 0.0 0.00 0.00 0.00 76 1020.0
20260507223042 12 290 25.7 0.0 0.00 0.00 0.00 76 1019.0
20260507220043 13 300 20.9 0.0 0.00 0.00 0.00 76 1019.0
20260507213042 13 300 25.7 0.0 0.00 0.00 0.00 71 1019.0
20260507210043 15 280 25.7 0.0 0.00 0.00 0.00 67 1019.0
20260507203043 13 210 14.5 0.0 0.00 0.00 0.00 71 1019.0
20260507200043 13 290 20.9 0.0 0.00 0.00 0.00 71 1019.0
20260507193044 13 300 17.7 0.0 0.00 0.00 0.00 71 1019.0
20260507190044 13 290 20.9 0.0 0.00 0.00 0.00 76 1019.0
20260507180044 13 300 17.7 0.0 0.00 0.00 0.00 76 1019.0
20260507173044 13 310 14.5 0.0 0.00 0.00 0.00 76 1019.0
20260507170044 13 300 14.5 0.0 0.00 0.00 0.00 76 1018.0
20260507163046 15 320 17.7 0.0 0.00 0.00 0.00 67 1018.0
20260507160043 15 320 20.9 0.0 0.00 0.00 0.00 63 1018.0
20260507153043 15 320 20.9 0.0 0.00 0.00 0.00 58 1018.0